• In Uzbekistan
  • List of Countries
  • For 7 days
  • Water Temperature
  • Satellite Maps
  • Weather Map
  • Weather Widgets
  • user-avatar
    Login

    Hourly Weather Louangphabang

    Today, 24 February, Saturday

    Time Temperature Precipitation Wind Pressure Humidity
    00:00 +19°C° 0 mm 1 mps 699 mmHg 97%
    01:00 +17°C° 0 mm 0 mps 699 mmHg 97%
    02:00 +17°C° 0 mm 0 mps 699 mmHg 97%
    03:00 +17°C° 0 mm 0 mps 699 mmHg 98%
    04:00 +16°C° 0 mm 0 mps 699 mmHg 98%
    05:00 +16°C° 0 mm 0 mps 699 mmHg 98%
    06:00 +16°C° 0 mm 0 mps 699 mmHg 97%
    07:00 +17°C° 0 mm 0 mps 700 mmHg 95%
    08:00 +20°C° 0 mm 0 mps 701 mmHg 83%
    09:00 +25°C° 0 mm 1 mps 701 mmHg 70%
    10:00 +28°C° 0 mm 1 mps 702 mmHg 58%
    11:00 +29°C° 0 mm 1 mps 701 mmHg 51%
    12:00 +31°C° 0 mm 1 mps 701 mmHg 45%
    13:00 +32°C° 0 mm 1 mps 701 mmHg 42%
    14:00 +31°C° 0 mm 1 mps 700 mmHg 42%
    15:00 +31°C° 0 mm 1 mps 699 mmHg 42%
    16:00 +30°C° 0 mm 1 mps 699 mmHg 42%
    17:00 +28°C° 0 mm 1 mps 699 mmHg 50%
    18:00 +26°C° 0 mm 1 mps 699 mmHg 58%
    19:00 +22°C° 0 mm 0 mps 699 mmHg 66%
    20:00 +21°C° 0 mm 0 mps 699 mmHg 69%
    21:00 +20°C° 0 mm 0 mps 699 mmHg 72%
    22:00 +20°C° 0 mm 0 mps 699 mmHg 75%
    23:00 +20°C° 0 mm 0 mps 699 mmHg 77%

    Tomorrow, 25 February, Sunday

    Time Temperature Precipitation Wind Pressure Humidity
    00:00 +19°C° 0 mm 0 mps 699 mmHg 79%
    01:00 +19°C° 0 mm 0 mps 699 mmHg 81%
    02:00 +19°C° 0 mm 0 mps 699 mmHg 82%
    03:00 +18°C° 0 mm 0 mps 699 mmHg 84%
    04:00 +18°C° 0 mm 0 mps 699 mmHg 85%
    05:00 +18°C° 0 mm 0 mps 699 mmHg 85%
    06:00 +18°C° 0 mm 0 mps 699 mmHg 86%
    07:00 +18°C° 0 mm 0 mps 699 mmHg 86%
    08:00 +21°C° 0.1 mm 0 mps 700 mmHg 74%
    09:00 +25°C° 0.1 mm 0 mps 701 mmHg 62%
    10:00 +28°C° 0.1 mm 0 mps 702 mmHg 50%
    11:00 +30°C° 0.1 mm 0 mps 701 mmHg 44%
    12:00 +32°C° 0.1 mm 0 mps 701 mmHg 37%
    13:00 +34°C° 0.1 mm 0 mps 700 mmHg 31%
    14:00 +32°C° 0 mm 0 mps 700 mmHg 33%
    15:00 +31°C° 0 mm 0 mps 699 mmHg 35%
    16:00 +29°C° 0 mm 0 mps 698 mmHg 37%
    17:00 +27°C° 0 mm 0 mps 698 mmHg 43%
    18:00 +26°C° 0 mm 0 mps 698 mmHg 48%
    19:00 +24°C° 0 mm 0 mps 698 mmHg 53%
    20:00 +23°C° 0 mm 0 mps 698 mmHg 56%
    21:00 +23°C° 0 mm 0 mps 698 mmHg 59%
    22:00 +22°C° 0 mm 0 mps 699 mmHg 61%
    23:00 +21°C° 0 mm 0 mps 699 mmHg 64%

    Day after tomorrow, 26 February, Monday

    Time Temperature Precipitation Wind Pressure Humidity
    00:00 +20°C° 0 mm 0 mps 699 mmHg 68%
    01:00 +20°C° 0 mm 0 mps 699 mmHg 71%
    02:00 +19°C° 0 mm 0 mps 698 mmHg 74%
    03:00 +19°C° 0 mm 0 mps 698 mmHg 76%
    04:00 +18°C° 0 mm 0 mps 698 mmHg 79%
    05:00 +18°C° 0 mm 0 mps 698 mmHg 80%
    06:00 +18°C° 0 mm 0 mps 699 mmHg 82%
    07:00 +17°C° 0 mm 0 mps 699 mmHg 84%
    08:00 +21°C° 0 mm 0 mps 700 mmHg 72%
    09:00 +24°C° 0 mm 0 mps 701 mmHg 60%
    10:00 +27°C° 0 mm 0 mps 702 mmHg 48%
    11:00 +30°C° 0.1 mm 1 mps 701 mmHg 44%
    12:00 +31°C° 0.1 mm 1 mps 700 mmHg 41%
    13:00 +33°C° 0.1 mm 1 mps 700 mmHg 37%
    14:00 +32°C° 0 mm 1 mps 699 mmHg 38%
    15:00 +31°C° 0 mm 1 mps 698 mmHg 40%
    16:00 +31°C° 0 mm 1 mps 697 mmHg 41%
    17:00 +29°C° 0 mm 1 mps 697 mmHg 47%
    18:00 +25°C° 0 mm 0 mps 697 mmHg 54%
    19:00 +23°C° 0 mm 0 mps 697 mmHg 60%
    20:00 +22°C° 0.1 mm 0 mps 697 mmHg 64%
    21:00 +21°C° 0.1 mm 0 mps 698 mmHg 68%
    22:00 +22°C° 0.1 mm 1 mps 698 mmHg 72%
    23:00 +22°C° 0 mm 1 mps 698 mmHg 74%

    27 February, Tuesday

    Time Temperature Precipitation Wind Pressure Humidity
    00:00 +21°C° 0 mm 1 mps 698 mmHg 76%
    01:00 +21°C° 0 mm 1 mps 698 mmHg 78%
    02:00 +18°C° 0.1 mm 0 mps 698 mmHg 80%
    03:00 +18°C° 0.1 mm 0 mps 697 mmHg 82%
    04:00 +18°C° 0.1 mm 0 mps 697 mmHg 84%
    05:00 +18°C° 0 mm 0 mps 697 mmHg 84%
    06:00 +17°C° 0 mm 0 mps 698 mmHg 85%
    07:00 +17°C° 0 mm 0 mps 698 mmHg 86%
    08:00 +20°C° 0.2 mm 0 mps 699 mmHg 75%
    09:00 +25°C° 0.2 mm 1 mps 700 mmHg 64%
    10:00 +28°C° 0.2 mm 1 mps 700 mmHg 54%
    11:00 +29°C° 0.3 mm 1 mps 700 mmHg 48%
    12:00 +31°C° 0.3 mm 1 mps 699 mmHg 43%
    13:00 +32°C° 0.3 mm 2 mps 698 mmHg 37%
    14:00 +32°C° 0 mm 1 mps 697 mmHg 37%
    15:00 +32°C° 0 mm 1 mps 696 mmHg 36%
    16:00 +31°C° 0 mm 1 mps 696 mmHg 36%
    17:00 +29°C° 0 mm 1 mps 696 mmHg 42%
    18:00 +27°C° 0 mm 1 mps 696 mmHg 48%
    19:00 +23°C° 0 mm 0 mps 696 mmHg 55%
    20:00 +24°C° 0 mm 1 mps 696 mmHg 58%
    21:00 +23°C° 0 mm 1 mps 697 mmHg 62%
    22:00 +22°C° 0 mm 1 mps 697 mmHg 66%
    23:00 +22°C° 0 mm 1 mps 697 mmHg 68%

    28 February, Wednesday

    Time Temperature Precipitation Wind Pressure Humidity
    00:00 +22°C° 0 mm 1 mps 697 mmHg 69%
    01:00 +21°C° 0 mm 1 mps 696 mmHg 71%
    02:00 +19°C° 0 mm 0 mps 696 mmHg 72%
    03:00 +18°C° 0 mm 0 mps 696 mmHg 74%
    04:00 +18°C° 0 mm 0 mps 696 mmHg 75%
    05:00 +18°C° 0 mm 0 mps 696 mmHg 75%
    06:00 +18°C° 0 mm 0 mps 697 mmHg 75%
    07:00 +18°C° 0 mm 0 mps 697 mmHg 76%
    08:00 +22°C° 0 mm 0 mps 698 mmHg 64%
    09:00 +25°C° 0 mm 0 mps 699 mmHg 53%
    10:00 +29°C° 0 mm 0 mps 700 mmHg 41%
    11:00 +32°C° 0 mm 1 mps 699 mmHg 38%
    12:00 +32°C° 0 mm 1 mps 698 mmHg 35%
    13:00 +33°C° 0 mm 1 mps 697 mmHg 32%
    14:00 +32°C° 0 mm 1 mps 697 mmHg 34%
    15:00 +32°C° 0 mm 1 mps 696 mmHg 36%
    16:00 +31°C° 0 mm 1 mps 695 mmHg 37%
    17:00 +29°C° 0 mm 1 mps 695 mmHg 41%
    18:00 +26°C° 0 mm 0 mps 695 mmHg 46%
    19:00 +24°C° 0 mm 0 mps 695 mmHg 50%
    20:00 +23°C° 0 mm 0 mps 696 mmHg 52%
    21:00 +22°C° 0 mm 0 mps 696 mmHg 55%
    22:00 +21°C° 0 mm 0 mps 696 mmHg 57%
    23:00 +23°C° 0 mm 1 mps 696 mmHg 59%

    1 March, Thursday

    Time Temperature Precipitation Wind Pressure Humidity
    00:00 +22°C° 0 mm 1 mps 696 mmHg 60%
    01:00 +22°C° 0 mm 1 mps 695 mmHg 62%
    02:00 +21°C° 0 mm 1 mps 695 mmHg 62%
    03:00 +19°C° 0 mm 0 mps 695 mmHg 63%
    04:00 +19°C° 0 mm 0 mps 694 mmHg 64%
    05:00 +19°C° 0 mm 0 mps 695 mmHg 64%
    06:00 +19°C° 0 mm 0 mps 695 mmHg 63%
    07:00 +19°C° 0 mm 0 mps 696 mmHg 63%
    08:00 +25°C° 0 mm 1 mps 697 mmHg 54%
    09:00 +28°C° 0 mm 1 mps 697 mmHg 45%
    10:00 +31°C° 0 mm 1 mps 698 mmHg 36%
    11:00 +32°C° 0 mm 2 mps 698 mmHg 32%
    12:00 +34°C° 0 mm 2 mps 697 mmHg 28%
    13:00 +36°C° 0 mm 2 mps 696 mmHg 24%
    14:00 +35°C° 0 mm 2 mps 695 mmHg 23%
    15:00 +35°C° 0 mm 2 mps 695 mmHg 23%
    16:00 +35°C° 0 mm 2 mps 694 mmHg 23%
    17:00 +31°C° 0 mm 2 mps 694 mmHg 29%
    18:00 +28°C° 0 mm 1 mps 694 mmHg 34%
    19:00 +25°C° 0 mm 1 mps 694 mmHg 40%
    20:00 +25°C° 0 mm 1 mps 694 mmHg 44%
    21:00 +24°C° 0 mm 1 mps 695 mmHg 47%
    22:00 +23°C° 0 mm 1 mps 695 mmHg 51%
    23:00 +22°C° 0 mm 1 mps 695 mmHg 54%
    Show more